Location: Domont
(49.0278°N, 2.3264°E)
Time: 04:00:11
(UTC+00:00)

H-2A R/B - Pass Details

Date: 05 June 2022
Orbit: 576 x 652 km, 98.5° (Epoch: 04 July)

Event Time Altitude Azimuth Distance (km) Brightness Sun altitude
Rises 21:39:42 0° 359° (N) 2,809 6.6 -12.7°
Reaches altitude 10° 21:42:40 10° 335° (NNW) 1,911 6.1 -13.0°
Maximum altitude 21:44:55 15° 302° (WNW) 1,640 5.2 -13.2°
Drops below altitude 10° 21:47:11 10° 269° (W) 1,920 4.9 -13.4°
Sets 21:50:11 0° 245° (WSW) 2,830 5.5 -13.6°
